COSMOS 2251 DEB, 34064

Orbit data source: Space-Track

COSMOS 2251 DEB, 34064 is space debris in LEO originally from a launch on Wed, 16 Jun 1993 UTC launched from the Plesetsk Missile And Space Complex (PKMTR). The debris from Iridium 33, an American commercial communications satellite, has been tracked extensively since its accidental collision with the defunct Russian satellite Cosmos 2251 in 2009. This event, occurring at high speed in low Earth orbit (LEO), generated thousands of pieces of space debris, significantly increasing the risk of further collisions. The Iridium 33 debris cloud has impacted space traffic management and orbital debris mitigation strategies, making it a subject of ongoing study in space situational awareness.

Loading next visibility...
Identifier
34064, 1993-036KB
Orbit
LEO
Country
Flag of CISCIS
Related business
Manufacturer
Unknown
Mission
Spacecraft
Bus & Motor
Unknown
Mass
Unknown
Launch date (UTC)
1993-06-16 (33 years ago)
Launch vehicle
Unknown
Launch site
Plesetsk Missile And Space Complex (PKMTR)
Object type
Payload
Rocket body
Debris
Shape & HBR
Unknown shape, 0.1 m
Radar Cross Section
Small (<0.1 m²)

Expand to show TLE details & history
Last TLE update: 14 hours ago

TLE from 14 hours ago
0 COSMOS 2251 DEB
1 34064U 93036KB  25354.98851950  .00001095  00000-0  33848-3 0  9996
2 34064  74.0321 255.5651 0022339 320.9498  53.8192 14.42363240882611
Epoch: 2025-12-20T23:43Z
TLE epoch observation values (Epoch: 2025-12-20T23:43:28.084Z)
Latitude
14.36278°
Longitude
174.06997°
Altitude
743.214 km
Speed
7.489 km/s
True Right ascension
17h 18m 58s
True Declination
14° 16' 49"
Sunlit
Object was in daylight at epoch
Visualization orbit readout
Latitude
Unknown
Longitude
Unknown
Altitude
Unknown
Speed
Unknown
Apparent Right ascension
Unknown
Apparent Declination
Unknown
Sunlit
N/A
Visualization observer readout
Local Sidereal Time
12:56:01
Azimuth
Unknown
Elevation
Unknown
Doppler factor
Unknown
Orbital elements
Apogee altitude
764.238 km
Perigee altitude
732.398 km
Semi-major axis
7,126.455 km
Eccentricity
0.00223
Inclination
74.0321°
RAAN
255.5651°
Arg. of periapsis
320.9498°
True anomaly
54.02616°
Mean anomaly
53.8192°
Eccentric anomaly
53.92265°
Mean motion
3.60772 °/min
Orbital period
99.79 mins
BSTAR
0.00033848
Loading maneuver chart data...
Computing Atmospheric mass density...
Loading historical data...
Loading historical data...
Loading historical data...
Loading historical data...
Loading historical data...
Loading historical data...
Loading historical data...

Documentation

Showing up to 5 results
|